Weather in Grigoropolisskaya

Russia / Stavropol Krai     45°18′06″N   41°03′19″E
temp.,
°C
wind,
m/s
gust,
m/s
humid.,
%
clouds,
%
prec.,
mm/h
press.,
hPa
HPBL,
m
10 may, mon
mon1000:00+6wsw5138987 0.0 1022331
03:00+5wsw5109384 0.3 1023282
06:00+5wsw48945 0.1 1023271
09:00+10w687239 0.9 10221078
12:00+12w8106094 1.0 10211926
15:00+11wnw81168100 2.3 10211559
18:00+9wnw61077100 0.8 1020816
21:00+7w51185100 1.1 1020511
11 may, tue
tue1100:00+6wsw61486100 0.0 1018463
03:00+8wsw91567100 0.1 1017961
06:00+8sw91668100 0.1 10161359
09:00+8s61069100 0.4 10171095
12:00+10s5761100 0.1 1017716
15:00+11ssw3460100 0.1 1018488
18:00+10ne1184100 0.5 101888
21:00+9n2289100 0.8 101834
12 may, wed
wed1200:00+8ne3693100 0.1 1017116
03:00+7ne3695100 0.1 1017149
06:00+8e2593100 0.0 1017170
09:00+13se35725 0.0 1017705
12:00+18se445812 0.0 10161235
15:00+20ese45542 0.0 10161481
18:00+18e47710 0.0 1015254
21:00+13e47840 0.0 1015101
13 may, thu
thu1300:00+11e47850 0.0 101590
03:00+10ese46885 0.0 101482
06:00+11ese498764 0.0 1014168
09:00+18ese5770100 0.0 1014464
12:00+24ese56583 0.0 1013836
15:00+25e675745 0.0 1012936
18:00+22e6127223 0.0 1013459
21:00+18ese6147697 0.0 1013315
14 may, fri
fri1400:00+15ese48830 0.0 1012131
03:00+14ese47880 0.0 1012111
06:00+15se37880 0.0 1013118
09:00+23se35635 0.0 1012321
12:00+28ese34525 0.0 1012677
15:00+29e445159 0.0 10111076
18:00+25e597358 0.0 1011290
21:00+19ese48845 0.0 1011120